Meath Environmental Platform

Observations

Time Sensor AQI SAQ Temp °C Hum % Pres Pa CO μg/m³ H₂S μg/m³ NO μg/m³ NO₂ μg/m³ O₃ μg/m³ SO₂ μg/m³ CO₂e PPM VOC PPM PM1 μg/m³ PM2.5 μg/m³ PM4 μg/m³ PM10 μg/m³ TPS µm
Tuesday 11 August 2026
23:24 Trim Patrick St 3 21.1 55 69,557 0 8.19 1.22 17.56 45.63 4.19 2.86 6.84 7.52
23:23 Trim Market St 2 21.9 52 55,812 0 0 1.29 22.8 56.8 0 1.43 3.4 3.85
23:22 Trim Market St 2 21.9 52 55,839 0 0 1.28 17.7 61.58 0 1.43 3.92 4.58
23:21 Trim Patrick St 3 21.2 55 69,547 0 8.77 1.22 23.74 44.93 4.45 2.86 7.59 8.35
23:21 Trim Market St 2 21.9 52 55,906 0 0 1.27 19.04 63.3 0 2.14 4.43 6.06
23:20 Trim Patrick St 3 21.2 55 69,541 0 7.39 1.23 21.45 43.56 3.65 4.57 9.89 10.88
23:20 Trim Market St 2 21.9 52 55,972 0 0 1.28 34.97 53.44 0 0 2.39 3.84
23:19 Trim Patrick St 3 21.2 54 69,527 0 8.9 1.23 27.43 53.93 4.35 2.86 8.4 9.25
23:19 Trim Market St 2 21.9 51 56,070 0 0 1.29 13.64 61.03 0 1.43 3.93 5.32
23:18 Trim Patrick St 3 21.2 55 69,513 0 8.53 1.23 22.11 43.81 3.45 2.86 7.62 8.39
23:18 Trim Market St 2 22 51 55,999 0 0 1.31 17 61.57 0 0.71 2.91 3.1
23:17 Trim Patrick St 3 21.2 55 69,493 0 9.32 1.22 20.61 51.75 4.57 3.71 7.6 8.36
23:17 Trim Market St 2 22 51 56,116 0 0 1.3 22.71 56.68 0 0 1.88 2.07
23:16 Trim Patrick St 3 21.3 55 69,467 0 8.13 1.22 28.98 43.17 3.98 3.71 8.36 9.19
23:16 Trim Market St 2 22 51 56,267 0 0 1.29 20.29 55.29 0 0.71 3.43 4.57
23:15 Trim Patrick St 3 21.3 54 69,465 0 8.76 1.23 22.94 49.4 4.47 3.71 8.43 9.28
23:15 Trim Market St 2 22 51 56,456 0 0 1.27 17.55 64.7 0 2.14 4.46 6.05
23:14 Trim Patrick St 3 21.3 54 69,460 0 9.45 1.23 18.56 46.14 4.7 2.86 8.39 9.23
23:14 Trim Market St 2 22 51 56,366 0 0 1.27 18.9 57.18 0 0.71 2.92 3.09
23:13 Trim Patrick St 3 21.3 55 69,452 0 9.16 1.24 19.95 48.35 4.66 3.71 7.6 8.36